TimeEST,TemperatureF,Dew PointF,Humidity,Sea Level PressureIn,VisibilityMPH,Wind Direction,Wind SpeedMPH,Gust SpeedMPH,PrecipitationIn,Events,Conditions,WindDirDegrees,DateUTC
12:54 AM,37.9,28.9,70,29.95,10.0,SW,3.5,-,N/A,,Clear,220,2014-01-20 05:54:00
1:54 AM,36.0,28.0,73,29.95,10.0,SW,4.6,-,N/A,,Clear,230,2014-01-20 06:54:00
2:54 AM,39.0,28.9,67,29.95,10.0,SW,5.8,-,N/A,,Clear,230,2014-01-20 07:54:00
3:54 AM,36.0,28.0,73,29.96,10.0,SW,8.1,-,N/A,,Clear,230,2014-01-20 08:54:00
4:54 AM,37.9,28.0,68,29.94,10.0,SSW,5.8,-,N/A,,Clear,210,2014-01-20 09:54:00
5:54 AM,37.0,28.0,70,29.94,10.0,SSW,4.6,-,N/A,,Clear,210,2014-01-20 10:54:00
6:54 AM,33.1,27.0,78,29.94,10.0,SSW,3.5,-,N/A,,Clear,210,2014-01-20 11:54:00
7:54 AM,37.0,28.0,70,29.94,10.0,SSW,4.6,-,N/A,,Clear,210,2014-01-20 12:54:00
8:54 AM,41.0,30.0,65,29.95,10.0,WSW,11.5,-,N/A,,Clear,240,2014-01-20 13:54:00
9:54 AM,46.0,30.0,54,29.96,10.0,West,11.5,-,N/A,,Clear,260,2014-01-20 14:54:00
10:54 AM,50.0,30.0,46,29.94,10.0,WSW,13.8,-,N/A,,Clear,240,2014-01-20 15:54:00
11:54 AM,54.0,30.9,41,29.89,10.0,WSW,13.8,-,N/A,,Clear,240,2014-01-20 16:54:00
12:54 PM,57.9,28.9,33,29.86,10.0,SW,12.7,-,N/A,,Clear,220,2014-01-20 17:54:00
1:54 PM,61.0,27.0,27,29.83,10.0,WSW,12.7,-,N/A,,Clear,240,2014-01-20 18:54:00
2:54 PM,63.0,27.0,26,29.82,10.0,WSW,12.7,-,N/A,,Clear,250,2014-01-20 19:54:00
3:54 PM,64.9,28.0,25,29.83,10.0,WSW,10.4,-,N/A,,Clear,240,2014-01-20 20:54:00
4:54 PM,62.1,30.0,30,29.83,10.0,SW,6.9,-,N/A,,Clear,230,2014-01-20 21:54:00
5:54 PM,57.9,28.9,33,29.85,10.0,SSW,5.8,-,N/A,,Clear,200,2014-01-20 22:54:00
6:54 PM,52.0,30.9,45,29.86,10.0,SSW,5.8,-,N/A,,Clear,200,2014-01-20 23:54:00
7:54 PM,53.1,28.9,40,29.87,10.0,SSW,5.8,-,N/A,,Clear,200,2014-01-21 00:54:00
8:54 PM,53.1,27.0,37,29.88,10.0,SSW,5.8,-,N/A,,Clear,200,2014-01-21 01:54:00
9:54 PM,52.0,26.1,37,29.88,10.0,SSW,5.8,-,N/A,,Clear,200,2014-01-21 02:54:00
10:54 PM,51.1,26.1,38,29.87,10.0,SSW,6.9,-,N/A,,Clear,210,2014-01-21 03:54:00
11:54 PM,48.0,27.0,44,29.85,10.0,SSW,5.8,-,N/A,,Clear,200,2014-01-21 04:54:00